Theta_e
314 314 316 315 316 304 310 311 306 309 315 311 308 307 307 305 303 301 312 308 311 316 316 319 324 326 328 329 329 330 334 336 340 342 342 341 342 343 345 346 347 348 344 343 343 344 343 344 346 347 351 350 348 347 346 347 347 347 345 345 345 345 345
313 316 316 316 315 316 312 306 310 315 316 314 309 301 305 302 298 302 307 304 306 307 303 323 325 321 320 326 330 328 331 336 337 340 342 342 342 344 347 349 350 349 344 342 341 342 343 344 346 348 351 350 348 348 348 346 346 345 345 345 345 345 344
313 315 315 312 314 316 312 311 318 307 303 302 309 306 299 299 299 301 304 306 305 307 309 313 316 314 317 323 331 330 329 333 337 339 342 345 344 344 345 346 348 348 343 340 340 340 342 345 348 350 349 347 348 348 347 345 345 345 346 346 347 347 345
312 313 312 306 309 313 315 315 313 315 312 310 306 307 308 306 300 300 301 304 301 311 311 313 313 316 318 321 332 330 329 332 336 340 341 343 343 343 344 346 348 347 342 340 339 339 340 345 347 346 344 344 343 345 347 345 345 347 347 347 347 345 347
312 307 310 308 310 308 308 309 309 310 310 314 312 312 307 304 302 301 301 299 306 313 316 314 316 317 320 322 329 332 331 333 337 341 341 343 344 343 344 345 347 347 343 338 338 340 341 346 347 342 340 340 338 340 343 343 344 345 345 346 346 346 346
307 308 314 313 314 313 311 310 309 310 308 306 302 302 309 307 303 298 299 299 308 316 324 319 317 321 321 326 328 331 334 334 338 340 342 344 344 345 345 345 345 345 343 339 339 340 342 343 340 336 337 337 336 338 339 340 340 341 341 345 346 346 346
308 310 314 317 317 315 314 313 311 313 312 311 306 298 304 307 307 309 307 302 306 322 327 326 326 327 325 330 331 331 333 336 338 341 342 345 346 345 344 344 344 344 344 341 340 342 343 344 341 339 339 337 337 338 338 338 338 338 336 338 345 347 345
313 314 316 315 314 315 312 313 314 312 310 310 309 309 311 306 307 303 304 302 306 321 331 330 330 333 331 333 335 336 333 336 338 341 342 345 346 348 346 344 343 344 344 343 343 344 345 344 343 342 342 340 338 337 336 336 336 336 337 336 338 344 345
306 309 312 311 314 313 311 311 312 313 313 313 313 314 314 306 307 307 303 299 306 322 329 328 329 328 324 326 330 335 336 337 338 342 344 345 348 347 345 344 344 345 343 343 345 346 346 346 345 345 344 341 339 340 338 335 334 334 337 340 339 340 341
296 297 297 301 305 308 311 313 312 313 312 312 311 306 309 301 307 310 304 304 310 319 325 323 325 329 327 330 332 332 336 339 339 341 343 346 347 346 346 345 345 344 345 347 347 347 346 345 345 346 345 344 341 340 340 338 335 336 337 339 337 338 336
304 305 309 312 313 312 307 309 312 312 312 313 313 311 307 303 307 308 306 309 310 313 316 316 320 320 318 319 329 332 334 337 340 343 344 345 346 346 344 345 345 346 347 346 347 346 345 344 345 346 344 342 340 341 342 339 338 338 341 341 342 339 336
311 311 316 314 314 310 310 310 310 312 311 312 311 309 306 315 310 301 305 315 311 311 315 317 319 320 323 325 326 328 335 338 338 340 343 342 344 345 344 345 345 345 346 346 345 345 344 343 345 344 343 341 341 341 342 340 339 339 339 342 342 340 338
313 314 314 314 313 312 312 311 311 310 311 312 310 312 314 318 307 304 315 317 313 315 316 318 319 320 321 322 324 327 330 334 340 340 341 340 340 342 342 344 345 345 344 345 344 344 343 344 344 343 342 342 342 345 343 343 339 339 342 343 342 339 338
312 312 313 313 311 311 311 311 312 312 311 311 311 312 315 316 314 315 318 318 316 317 318 319 320 322 323 327 328 330 329 328 336 338 339 339 339 339 341 343 344 345 345 345 344 345 345 343 343 342 343 344 343 343 343 340 341 341 343 344 343 340 337
310 312 313 313 312 312 309 311 312 312 311 311 312 312 314 315 314 314 314 314 313 319 324 322 321 324 330 330 326 324 327 329 331 335 336 338 337 338 340 343 343 344 344 345 344 343 343 342 343 342 344 344 344 340 338 335 340 342 343 344 343 340 338
308 310 311 311 313 311 310 311 312 312 311 310 312 312 315 313 313 315 314 312 311 316 324 322 321 321 324 323 327 329 331 330 332 333 335 336 337 338 339 341 343 343 343 343 343 343 342 342 343 344 344 344 344 343 337 337 338 342 343 342 341 340 338
306 310 312 310 310 309 307 308 311 312 313 313 314 315 318 316 314 311 308 309 316 319 321 317 318 318 321 324 328 329 332 334 333 333 334 336 338 338 339 341 342 342 341 343 343 341 340 340 343 345 347 345 344 344 341 341 343 342 342 340 340 339 338
307 309 310 311 307 300 302 319 317 315 312 312 311 312 314 316 316 312 314 315 318 318 317 318 319 320 322 327 334 333 330 333 335 333 335 336 338 339 339 341 341 342 342 342 342 341 342 343 342 345 346 346 346 345 341 343 344 344 341 340 339 338 338
307 311 310 305 299 301 319 318 320 318 316 315 314 314 314 314 317 316 315 317 318 319 319 319 321 327 330 332 331 331 331 332 333 334 334 336 337 338 339 340 341 343 343 343 343 342 342 341 342 343 345 348 347 343 342 341 345 344 342 340 339 339 338
312 308 305 296 300 315 315 317 317 319 318 317 315 313 315 316 316 319 317 317 318 319 319 321 330 330 328 330 333 335 334 333 333 332 333 335 336 338 339 341 342 344 343 344 343 344 344 344 343 343 346 346 341 339 342 342 344 343 341 339 338 339 338
304 305 304 304 313 311 313 312 315 314 314 314 312 308 312 318 319 318 318 318 318 318 319 327 328 329 327 327 331 335 334 335 334 333 334 334 337 339 341 342 344 347 347 346 345 348 347 347 346 344 343 344 342 338 339 340 342 341 338 337 337 338 338
310 304 303 304 304 301 308 315 319 319 319 319 319 314 310 319 319 320 319 318 319 319 323 327 327 330 326 317 322 330 331 333 334 335 336 335 338 340 341 345 346 349 348 348 349 347 347 348 347 345 344 344 344 341 339 340 339 338 336 335 337 338 339
308 305 301 300 299 303 312 315 318 319 320 317 318 311 306 316 319 320 319 317 318 319 324 330 329 322 313 313 321 329 333 332 333 333 335 334 337 341 343 343 345 347 348 349 349 350 349 347 348 349 348 345 344 343 340 337 337 335 335 337 337 338 340
307 306 302 301 306 306 315 317 316 317 320 318 314 302 303 317 318 318 319 317 317 320 327 330 327 319 312 314 325 329 332 333 333 337 337 337 339 342 345 345 347 349 351 350 348 346 346 347 350 350 348 345 343 340 336 335 335 335 337 339 340 341 340
306 305 304 306 308 317 317 315 316 317 318 315 305 298 309 319 320 320 320 319 319 324 331 328 321 325 328 334 332 333 332 332 334 337 338 338 339 340 339 341 345 347 349 348 345 345 346 349 350 348 346 344 342 342 340 337 336 336 339 342 341 343 344
304 306 303 303 308 317 316 317 316 318 313 304 303 321 324 322 319 322 321 320 321 326 331 329 325 330 330 331 331 332 332 334 336 336 336 337 337 340 340 343 342 343 342 345 346 345 349 351 348 346 345 344 343 343 340 337 339 340 342 343 345 346 345
308 309 306 301 296 316 316 316 316 316 309 311 322 324 325 323 323 321 323 322 323 329 331 331 333 330 326 328 331 332 335 336 336 337 336 338 336 336 339 341 342 339 341 340 341 342 341 343 345 344 344 343 342 342 340 341 341 342 344 345 346 346 344
304 304 301 300 311 314 317 316 312 318 317 328 329 324 318 323 324 325 323 326 331 335 333 331 331 329 330 333 335 337 337 336 337 339 340 340 339 338 335 335 339 337 341 342 341 342 339 342 343 343 342 341 341 340 341 344 345 344 346 346 346 344 343
309 307 310 316 320 320 319 320 319 320 322 323 323 323 323 321 322 326 327 327 330 337 335 333 331 330 331 335 335 335 335 335 335 338 339 339 339 338 337 333 338 338 337 339 342 343 343 343 343 342 341 339 339 339 342 345 346 345 345 344 343 342 340
317 317 319 317 319 319 320 320 322 321 321 322 322 322 321 323 324 325 324 327 330 335 335 331 331 331 332 333 333 333 334 336 341 342 341 341 341 339 339 339 340 337 336 337 337 339 342 344 343 342 342 340 339 341 344 345 348 345 343 343 341 340 339
307 304 317 316 314 317 318 319 321 322 323 324 325 325 326 327 328 327 330 330 332 333 334 333 331 330 332 331 334 337 338 337 338 337 338 339 338 338 338 342 341 338 337 334 335 336 337 343 342 340 341 340 341 343 345 347 346 345 343 341 339 338 337
309 312 316 315 315 319 320 319 319 320 323 324 326 328 328 329 330 331 332 333 333 334 332 334 333 332 330 331 333 332 333 334 336 337 338 339 339 341 340 340 338 337 337 337 336 337 337 340 341 339 337 339 341 342 341 340 338 341 340 339 337 336 335
313 314 316 315 317 318 317 318 318 317 319 322 323 326 328 327 327 330 331 331 333 332 332 334 334 331 331 332 331 328 330 332 331 331 334 338 340 340 342 341 340 339 339 337 337 336 336 339 338 337 336 335 335 338 337 336 337 338 337 336 335 334 335
307 310 312 313 310 310 315 317 315 315 317 321 323 324 327 327 328 330 330 331 332 331 334 334 332 331 332 332 331 325 327 328 331 335 336 337 337 338 337 336 337 337 336 336 334 335 337 337 335 335 334 335 334 332 334 335 337 337 337 335 334 331 331
307 310 315 315 315 314 316 315 315 316 320 324 322 323 324 327 330 330 327 328 331 332 332 333 332 333 333 332 330 326 325 333 337 338 336 334 333 333 333 334 335 335 336 335 335 335 335 335 334 333 333 333 334 332 335 336 336 336 337 333 330 328 329
311 313 313 313 313 310 313 314 316 317 324 323 321 322 324 325 327 328 330 328 328 330 331 331 333 332 331 330 328 326 329 332 334 334 334 336 335 333 333 334 334 334 333 334 333 334 335 334 334 334 332 333 335 333 336 336 336 337 336 333 330 328 328
309 313 313 314 314 314 315 317 318 321 324 319 317 317 320 322 326 327 328 329 329 328 328 327 333 334 328 329 329 331 333 333 334 336 335 334 334 331 330 331 332 334 334 333 333 333 334 334 333 333 333 334 335 332 335 334 334 333 334 332 329 329 331
Wind_Speed
11 13 8 8 6 10 10 7 11 5 5 6 4 4 1 5 6 10 6 6 9 6 9 10 8 6 6 7 8 10 10 10 11 13 15 16 15 15 14 14 14 15 14 13 12 13 12 12 12 11 11 10 10 9 8 8 7 6 5 5 4 4 3
4 3 7 5 5 6 7 10 7 6 4 5 4 7 5 7 8 3 3 9 9 6 4 3 6 8 8 9 10 10 10 11 13 13 14 15 16 16 15 14 14 15 14 15 13 12 13 13 12 11 11 9 8 8 8 8 7 7 6 5 5 4 4
8 5 7 8 3 4 7 6 11 10 8 11 7 6 8 8 8 8 7 6 9 6 4 7 7 6 5 7 8 9 11 13 13 13 14 15 15 15 14 15 14 14 14 14 13 13 13 12 11 10 10 9 9 8 8 7 7 7 6 5 5 4 4
9 9 10 11 11 7 3 3 7 6 8 5 8 8 7 3 10 5 3 5 7 8 4 4 3 0 5 3 8 9 12 13 13 13 14 15 16 15 15 15 14 14 15 15 15 13 13 12 11 10 11 10 11 9 8 7 7 6 6 6 5 5 5
9 10 9 12 11 11 11 10 9 8 7 3 5 1 7 5 8 6 7 5 5 4 6 0 1 3 2 4 6 7 8 10 12 12 13 14 16 15 15 15 15 15 15 15 14 13 12 11 11 10 10 10 9 8 9 9 9 8 8 7 6 5 4
9 10 12 7 5 11 13 12 12 11 10 8 9 8 4 6 5 4 5 6 5 8 2 5 2 1 2 3 5 4 6 8 10 11 13 13 14 15 15 15 15 15 15 15 14 13 11 11 12 11 10 9 9 9 8 8 9 8 8 7 6 5 4
12 5 6 2 2 5 6 12 12 12 10 9 8 8 6 5 5 4 5 7 5 7 5 4 2 1 2 1 3 5 4 6 9 10 12 12 13 15 16 16 15 15 15 14 13 13 13 12 11 10 9 9 8 8 8 7 7 7 7 6 5 5 5
5 6 4 3 0 5 7 10 10 8 12 10 10 9 3 6 4 6 5 8 4 7 3 2 2 1 3 3 3 5 4 5 8 10 12 12 12 13 14 14 14 14 14 14 12 13 12 11 10 11 9 8 7 7 7 7 7 7 6 5 5 6 5
8 6 5 6 4 8 10 10 12 12 10 8 1 6 4 9 7 9 6 8 5 7 1 2 2 3 5 5 4 4 5 4 6 9 10 11 12 13 15 16 16 16 16 15 13 12 12 11 10 10 9 9 8 7 7 7 6 6 5 5 5 5 5
13 13 12 12 11 12 11 13 10 12 12 10 8 8 6 8 5 8 8 9 2 7 2 4 4 3 3 4 3 3 5 5 4 7 10 10 11 12 14 15 16 17 15 13 12 12 10 10 10 9 9 9 8 8 8 7 6 5 5 5 5 5 6
12 11 10 10 11 11 14 16 15 14 15 14 12 9 5 9 4 8 7 12 11 6 4 4 4 3 5 5 5 6 5 6 6 6 7 9 10 12 15 15 13 13 13 14 13 12 11 11 10 9 9 9 8 8 8 8 5 5 5 5 5 5 6
14 6 5 8 13 13 15 16 16 16 15 14 14 10 11 5 4 10 3 6 10 13 11 5 6 5 5 5 5 5 5 6 8 9 9 10 10 11 13 14 16 16 14 14 14 13 13 12 10 9 9 9 9 8 9 7 7 7 5 6 6 6 6
10 3 4 6 10 13 12 15 14 16 15 14 15 14 9 6 10 9 4 3 6 10 7 4 5 7 8 7 6 6 5 5 7 8 10 11 12 13 14 15 15 15 15 15 15 14 12 12 11 11 9 9 8 8 8 7 7 7 6 6 6 6 6
9 5 6 6 11 9 12 13 13 13 14 15 16 13 7 9 7 5 4 4 10 11 9 7 9 8 7 7 5 5 7 8 7 9 10 11 12 13 15 15 15 15 16 15 15 14 13 13 12 11 9 9 10 10 9 8 8 7 6 7 7 7 7
7 6 5 7 10 11 13 12 12 12 12 12 13 9 6 5 6 5 6 8 11 8 3 6 5 5 4 6 9 9 8 8 9 10 10 11 13 13 13 14 15 15 15 15 15 15 14 13 12 11 10 10 10 11 10 9 8 7 7 7 8 7 7
7 6 8 9 8 10 11 10 9 10 11 11 8 8 8 8 6 6 7 9 9 6 4 3 6 7 9 10 9 7 6 7 9 10 10 12 12 13 14 14 14 15 16 16 16 15 14 13 13 11 10 10 10 10 9 8 7 7 8 8 8 7 7
9 8 8 10 9 9 9 11 12 12 11 9 8 6 6 7 6 7 8 9 4 4 5 10 10 11 10 9 6 5 5 5 7 9 10 10 11 12 13 14 15 16 16 16 16 15 14 13 12 13 12 11 11 10 9 8 7 7 8 8 8 7 7
5 11 8 8 9 13 10 1 8 13 11 11 10 9 8 7 6 6 6 7 6 7 8 9 9 10 9 6 3 2 5 5 6 8 8 8 9 11 12 13 14 14 13 12 13 15 14 13 14 12 12 11 10 10 9 9 8 8 8 8 7 8 7
6 7 7 9 13 10 4 3 5 2 6 9 9 6 7 7 9 10 10 9 10 9 9 9 9 8 6 5 6 6 6 6 5 6 7 8 8 9 10 11 12 13 13 13 13 13 13 14 12 11 11 10 10 9 9 9 9 8 8 8 8 8 7
3 7 9 11 9 5 6 6 6 5 3 2 5 7 7 7 8 10 10 10 10 9 9 7 3 4 5 5 7 8 7 7 6 6 6 7 8 9 9 12 13 13 14 14 14 14 12 11 11 11 11 11 11 11 10 10 9 9 8 8 9 8 8
10 9 10 10 6 4 6 4 5 7 6 8 8 8 8 7 8 8 8 10 9 9 6 2 2 2 4 6 5 8 7 7 7 6 5 6 8 8 9 11 12 12 13 13 13 12 10 10 11 11 11 10 11 10 11 10 10 9 9 9 9 9 8
9 10 9 11 10 11 7 5 4 9 4 4 4 3 7 6 8 5 7 9 7 8 4 3 3 2 5 7 5 7 7 7 7 5 4 4 6 8 9 9 9 10 10 10 10 10 11 11 11 10 10 10 9 10 10 10 10 10 10 10 9 9 9
7 10 11 11 12 9 5 8 7 7 4 5 6 5 8 4 6 5 6 8 7 7 5 6 5 5 7 7 3 9 8 8 8 8 6 5 7 7 9 10 10 11 10 10 10 9 9 10 11 10 9 10 10 10 11 11 11 11 10 10 10 10 9
9 10 11 12 8 7 6 8 7 7 5 5 4 9 7 3 1 4 4 6 6 6 6 6 7 6 7 6 6 9 9 8 8 8 7 6 7 7 7 7 7 8 8 8 8 9 10 12 9 9 9 9 11 10 11 12 12 12 11 10 9 9 8
11 11 11 8 8 5 6 6 6 6 6 5 8 9 5 3 4 2 4 6 6 5 7 7 6 7 2 5 8 10 10 10 9 8 7 7 6 7 8 8 7 7 7 8 10 11 9 7 6 8 8 9 10 10 10 11 13 13 10 9 8 7 7
12 11 12 12 7 4 5 5 5 7 6 8 10 4 3 5 4 2 5 8 6 6 9 8 6 4 6 6 8 10 10 10 9 9 9 8 7 6 5 8 7 6 7 7 8 9 6 5 6 7 8 9 9 9 10 12 13 11 9 8 8 7 7
7 6 9 6 8 4 3 9 5 2 8 4 4 3 4 5 6 7 6 8 7 7 7 8 5 6 8 9 10 10 10 10 10 10 9 8 8 8 8 7 7 6 6 7 7 7 6 7 6 7 8 9 9 9 10 13 11 10 8 9 9 8 7
8 8 7 3 4 7 3 2 3 3 3 5 4 7 8 6 6 6 7 7 6 5 6 7 7 7 8 8 9 10 10 10 10 8 7 6 6 6 7 6 5 6 4 4 4 4 4 4 5 6 7 8 9 10 12 11 10 10 10 9 8 7 7
5 4 1 7 2 3 2 3 4 6 7 8 9 8 8 9 8 6 6 7 6 4 4 6 6 6 7 9 10 11 11 10 9 8 7 6 6 5 5 4 4 3 4 4 4 4 4 5 6 7 7 9 10 12 11 9 9 10 9 9 8 8 7
1 3 5 1 2 3 4 3 4 7 9 9 8 9 10 10 11 9 9 8 6 4 5 7 7 6 7 8 7 9 9 8 8 7 7 6 5 5 5 4 3 3 3 5 6 6 7 7 7 7 8 9 11 11 9 8 9 9 9 9 8 7 7
2 2 3 3 5 3 3 5 5 6 7 8 6 7 8 10 10 10 7 6 6 7 8 10 9 8 8 9 7 7 6 7 7 7 6 6 5 5 4 4 3 2 3 4 5 6 7 6 6 7 8 8 8 7 7 7 7 7 8 7 7 6 7
5 2 3 5 5 2 5 5 6 8 10 10 9 7 8 9 9 8 6 4 6 6 8 10 10 8 8 9 7 7 7 7 7 7 6 6 6 5 4 4 2 1 1 3 4 4 4 3 3 4 5 6 6 7 7 8 7 7 6 6 7 7 8
2 4 3 7 3 6 6 8 9 10 10 11 11 10 10 8 8 6 5 5 4 6 7 9 9 8 8 8 9 9 8 7 7 6 5 5 5 5 5 5 3 2 2 3 3 3 3 2 2 3 4 5 5 6 6 6 4 5 6 7 6 7 6
8 2 4 7 3 4 4 9 12 13 14 11 10 9 8 5 5 3 4 3 4 5 6 8 8 9 7 8 8 8 7 6 5 5 5 5 5 6 5 4 4 4 3 2 2 1 1 1 1 2 2 3 4 5 5 4 4 5 5 5 6 7 7
1 5 5 5 3 5 4 8 12 13 12 10 9 9 9 9 7 6 3 4 4 3 5 4 6 7 7 7 6 6 7 5 5 5 5 5 4 4 4 4 4 3 2 1 1 1 0 1 2 3 3 3 3 4 1 2 4 5 5 5 5 7 6
2 4 5 4 5 7 9 12 11 10 8 8 8 9 10 9 8 7 6 3 2 4 4 3 3 7 8 8 8 7 7 8 7 6 5 5 5 4 3 3 3 3 3 2 1 1 1 1 1 2 3 2 2 3 3 3 3 4 5 5 5 6 6
4 7 6 5 7 9 9 9 9 5 3 7 9 10 11 12 11 7 5 2 2 5 6 7 5 4 8 9 8 8 8 7 6 7 6 5 4 3 3 4 4 4 3 3 2 1 1 1 1 2 2 1 0 2 1 2 3 4 4 5 7 6 5
Wind_Direction
192 198 173 193 208 215 157 203 214 227 0 260 240 211 357 293 288 265 161 231 228 256 239 214 189 201 199 195 202 209 201 197 196 199 199 194 185 185 184 185 185 179 176 179 178 175 176 178 177 181 180 184 190 190 191 191 186 182 188 198 210 213 220
144 36 199 162 194 313 150 214 195 96 46 334 244 258 144 241 249 247 185 249 252 210 268 104 176 230 227 215 215 210 201 197 198 200 199 192 187 183 182 186 184 178 177 179 181 179 180 179 178 178 178 184 191 195 194 191 191 195 195 205 213 212 220
139 168 165 167 167 259 250 289 127 211 169 214 188 260 236 247 232 264 196 234 265 261 233 169 170 221 225 218 206 212 204 202 202 197 193 191 185 179 182 186 183 180 178 180 185 183 182 176 174 173 178 186 191 193 195 202 202 204 205 209 211 215 225
150 181 196 207 187 178 235 275 205 224 252 248 177 212 284 300 284 292 231 183 263 187 272 49 310 245 281 226 191 215 212 206 201 194 190 188 186 183 182 185 184 181 179 181 183 184 184 173 175 177 185 192 194 189 190 199 204 204 207 210 214 224 222
159 200 187 220 194 191 192 209 212 187 225 30 298 158 252 264 284 276 297 249 236 107 100 170 208 280 258 224 214 211 218 211 201 196 190 187 187 183 184 185 184 182 181 184 185 185 183 173 175 185 189 195 197 189 190 202 203 209 211 215 218 224 229
200 213 191 241 284 206 197 203 208 201 189 194 220 213 168 236 239 254 241 256 283 110 161 146 262 202 214 220 236 217 210 208 197 192 191 187 188 186 184 186 184 184 182 184 184 184 180 177 184 188 189 193 193 198 202 205 212 211 221 204 216 226 227
205 169 81 353 289 317 247 213 217 207 210 220 223 263 167 209 223 287 277 300 283 98 126 160 157 156 237 271 236 231 202 199 192 190 191 187 190 187 185 183 183 182 182 183 181 177 175 180 183 181 185 195 194 198 212 215 218 224 234 219 198 215 233
81 109 114 133 53 253 225 215 256 229 223 215 238 250 140 236 128 237 222 249 277 124 107 132 134 240 259 246 262 247 220 192 189 186 186 184 183 186 186 182 181 181 178 178 171 167 172 177 177 177 183 194 197 208 217 218 222 226 239 246 220 209 224
197 184 181 197 175 216 228 227 211 229 243 236 227 82 121 253 207 250 262 266 280 114 116 151 156 213 222 217 217 225 242 203 196 184 186 182 181 179 180 180 181 181 177 172 168 168 170 175 180 179 184 188 192 204 220 230 236 233 224 227 236 238 241
199 200 203 202 195 207 217 230 216 208 218 199 212 218 191 241 207 220 244 256 273 115 166 161 174 198 231 237 253 221 210 229 211 187 185 181 179 180 180 179 180 181 176 166 164 167 168 178 182 179 182 186 191 204 217 228 231 236 233 232 238 238 249
216 219 218 205 212 195 213 204 209 202 213 219 221 250 237 243 171 223 224 244 281 251 152 197 174 209 236 242 220 227 221 208 206 201 194 185 181 178 181 181 180 176 170 168 163 165 173 180 184 181 182 188 194 202 218 222 225 230 226 231 236 247 251
241 257 184 179 215 222 211 213 210 211 207 209 219 218 239 199 185 248 199 185 241 265 283 283 257 259 253 262 273 259 233 217 208 197 191 191 188 185 183 183 183 182 174 165 167 173 177 183 181 181 184 188 194 205 214 216 219 222 220 219 229 233 242
221 206 194 176 211 232 233 227 212 203 200 203 218 220 225 180 245 270 88 171 230 265 278 278 271 284 282 276 278 274 270 240 213 202 197 192 191 187 188 188 187 183 177 173 171 174 177 181 183 182 185 188 195 207 216 214 222 223 216 215 221 232 235
207 183 196 200 229 219 227 225 213 203 201 206 216 220 210 224 232 259 163 212 257 271 285 283 287 291 288 289 284 264 253 244 218 209 203 197 195 194 192 191 189 185 180 172 170 172 176 182 184 183 185 189 198 207 210 209 217 222 212 213 222 228 234
192 172 168 191 219 211 220 216 208 204 204 208 215 223 194 211 241 247 261 270 273 280 236 249 273 279 277 267 260 260 261 246 225 215 207 203 202 199 196 192 191 186 179 171 170 174 175 181 183 190 190 196 204 213 212 216 212 214 210 213 218 223 228
186 175 187 183 199 215 209 192 189 188 190 197 182 210 180 212 219 224 248 257 266 267 166 247 255 255 248 254 260 264 251 236 227 221 216 209 204 198 194 191 188 183 180 174 174 175 176 182 187 190 194 199 202 210 213 218 218 204 208 214 218 220 224
212 159 190 179 186 202 213 207 199 191 199 214 205 206 170 210 246 251 251 257 298 348 311 290 284 275 265 257 261 275 271 246 235 224 221 214 205 200 194 190 188 185 180 177 177 176 179 185 189 195 195 198 203 203 208 212 214 214 209 213 215 221 222
183 159 181 183 208 223 225 231 213 200 213 210 210 208 200 202 199 250 274 293 310 277 274 271 279 281 285 280 277 272 274 250 227 227 223 220 209 202 197 192 189 184 181 179 179 178 182 189 196 198 199 201 202 200 205 205 209 213 215 219 219 219 219
192 152 165 214 229 239 85 123 71 129 212 212 226 218 205 203 210 238 250 255 260 264 267 270 278 291 290 267 261 238 214 230 233 222 218 213 208 202 194 190 187 181 180 178 177 179 190 197 198 197 197 201 198 197 201 205 204 208 213 219 218 220 220
159 190 212 234 238 80 127 104 113 89 115 142 204 220 204 232 241 231 242 257 264 264 261 264 286 285 287 278 246 229 216 209 216 206 206 202 201 198 193 187 184 178 178 179 178 185 192 194 199 199 199 199 203 203 200 205 203 206 210 216 221 220 221
228 224 228 239 80 165 135 144 181 177 173 175 202 240 232 213 233 237 243 252 260 263 263 231 239 267 268 253 212 187 191 189 199 199 191 185 189 188 188 186 182 178 180 181 187 186 188 193 197 203 205 201 204 205 204 205 206 207 211 217 222 222 223
235 236 229 235 232 249 210 189 176 195 187 195 161 251 254 210 252 252 251 251 259 264 235 196 177 188 249 251 182 150 159 167 176 179 185 169 170 174 178 178 175 174 181 189 189 194 193 199 205 208 205 200 195 199 206 208 208 209 213 218 221 226 225
220 232 240 235 248 241 263 179 149 161 167 177 126 238 262 215 253 246 260 258 249 250 216 177 181 216 238 240 148 131 143 159 162 159 164 158 154 164 171 172 172 177 182 188 187 189 199 208 208 205 202 201 197 198 205 216 219 218 217 217 221 224 224
218 235 235 246 236 260 126 106 130 134 166 133 203 262 267 95 272 333 256 240 236 228 203 182 201 225 232 241 125 139 144 153 147 149 154 153 149 156 159 170 170 168 168 172 186 199 206 218 212 199 197 202 209 210 214 217 224 224 219 213 217 225 229
221 219 249 249 239 115 101 99 116 142 151 198 251 253 293 35 312 288 242 240 236 204 186 197 219 215 0 76 122 135 137 137 141 143 150 155 159 162 167 156 154 164 177 191 201 210 216 217 201 196 198 203 211 209 209 216 227 228 216 209 214 219 222
231 231 240 243 258 71 84 111 137 148 193 231 261 8 7 355 336 238 249 274 253 212 202 205 239 154 136 144 135 137 145 141 139 146 143 147 150 151 150 141 167 178 195 201 216 219 209 191 187 189 196 206 214 211 207 218 225 226 215 204 202 206 215
247 233 244 238 245 127 215 125 137 125 256 310 40 339 347 13 339 320 271 256 264 226 213 210 217 172 162 156 148 143 138 139 143 147 149 154 161 162 160 162 177 192 201 215 223 233 220 212 196 199 201 210 217 216 217 220 220 219 203 207 200 206 215
243 223 232 261 37 95 116 264 278 131 291 12 356 348 311 326 323 318 305 278 276 252 235 204 194 181 151 149 145 142 136 137 139 138 141 146 156 163 185 172 169 194 204 219 233 236 235 191 188 194 203 212 219 222 227 225 214 206 198 201 202 207 213
252 287 11 87 131 1 342 312 312 302 305 299 304 294 289 292 285 290 283 288 291 253 240 210 192 180 174 158 160 147 140 142 145 146 150 152 158 156 167 160 137 184 222 231 239 224 200 196 199 208 208 218 221 227 230 224 208 197 196 200 201 207 212
81 103 47 7 38 5 350 340 346 321 320 319 310 296 289 277 275 272 271 277 285 229 212 206 183 186 153 143 139 136 137 135 119 119 124 133 138 146 148 162 170 213 231 244 242 243 231 218 213 209 214 217 226 229 228 215 204 203 201 199 202 203 209
254 167 93 21 4 348 356 8 5 336 326 316 310 294 281 284 290 282 268 263 252 231 201 199 181 173 156 142 123 117 123 128 132 138 140 137 145 148 157 132 147 186 235 254 259 262 260 230 226 226 221 227 232 233 220 202 201 202 201 199 194 195 209
248 67 83 7 331 42 67 30 14 6 356 341 330 314 293 289 291 290 282 240 224 197 191 188 173 164 165 149 142 146 146 140 142 143 140 140 136 121 112 127 151 193 242 286 312 319 315 307 261 272 264 241 229 225 220 220 212 185 197 192 199 204 213
92 137 81 3 326 134 82 40 26 7 349 334 323 322 310 289 269 252 236 235 199 190 175 176 174 169 165 160 163 166 152 153 154 151 136 116 107 108 110 96 89 70 40 10 357 341 330 353 313 287 277 272 261 220 229 232 204 189 197 200 209 223 221
232 244 57 10 266 199 14 359 0 350 345 333 323 319 313 301 289 252 200 171 175 167 148 168 176 166 161 163 178 174 149 153 140 128 113 106 106 102 98 99 83 82 68 44 3 351 333 325 285 272 262 259 265 255 224 201 187 206 207 212 213 222 226
317 75 88 45 347 305 324 337 337 334 340 337 326 325 322 323 313 288 249 154 142 147 147 166 179 165 159 153 160 157 141 126 118 110 119 124 124 108 102 104 102 103 109 105 140 161 212 231 240 236 231 231 221 246 214 207 207 207 210 222 231 243 235
349 64 46 2 343 316 316 317 321 327 358 348 341 331 332 321 300 301 306 297 186 154 155 155 188 177 172 164 173 176 145 146 134 129 117 105 102 111 125 133 134 138 142 156 163 141 147 242 246 257 258 239 235 234 184 220 222 221 221 230 233 249 246
332 360 328 337 310 304 297 299 302 308 10 356 344 338 337 331 320 303 283 270 237 188 171 176 164 178 183 172 183 162 140 129 120 110 106 107 122 144 140 138 143 145 136 123 113 111 133 213 258 277 275 299 309 302 305 237 237 235 232 242 256 254 241